Tracking 29892 objects as of 21-Nov-2024
HD Live streaming from Space Station
objects crossing your sky now

STARLINK-3060

Track STARLINK-3060 now!
10-day predictions
STARLINK-3060 is classified as:


NORAD ID: 49155
Int'l Code: 2021-082AB
Perigee: 577.3 km
Apogee: 581.0 km
Inclination: 70.0 °
Period: 96.1 minutes
Semi major axis: 6950 km
RCS: Unknown
Launch date: September 14, 2021
Source: United States (US)
Launch site: AIR FORCE WESTERN TEST RANGE (AFWTR)
Your satellite tracking list
Your tracking list is empty




NASA's NSSDC Master Catalog

Two Line Element Set (TLE):
1 49155U 21082AB  24325.10017834 -.00000273  00000-0 -15118-4 0  9991
2 49155  70.0002  11.0689 0002688 266.6200  93.4652 14.98336359176954
Source of the keplerian elements: AFSPC